[[{"header":{"parameterUnit":"m.s-1","parameterCategory":2,"la1":30.2991,"la2":30.254,"lo1":-89.0895,"lo2":-89.0444,"dy":0.0017,"dx":0.0017,"nx":28,"ny":28,"refTime":"2023-09-10T03:00:00:Z","depth":"0","parameterNumber":2,"parameterNumberName":"U-component_of_CURRENTS"},"data":[0,0,0,0,0,0,0,0,0,0,0,0,0,0,0,0,0,0,0,0,0,0,0,0,0,0,0,0,0,0,0,0,0,0,0,0,0,0,0,0,0,0,0,0,0,0,0,0,0,0,0,0,0,0,0,0,0,0,0.2626,0.2627,0,0.2686,0.2686,0.2687,0.27,0.27,0.27,0.27,0.2709,0.2709,0.2709,0,0,0,0,0,0,0,0,0,0,0,0,0,0.2524,0.2525,0.2626,0.2627,0.2628,0.2686,0.2687,0.2687,0.27,0.27,0.27,0.27,0.2709,0.2709,0.2709,0,0,0,0,0,0,0,0,0,0,0,0,0,0.257,0.2525,0.2626,0.2646,0.2648,0.2686,0.2687,0.2687,0.27,0.27,0.27,0.2701,0.2709,0.2709,0.2709,0.271,0,0,0.271,0.2711,0,0,0,0,0,0,0,0,0.2567,0.2573,0.2642,0.2644,0.2648,0.269,0.2654,0.2694,0.27,0.2675,0.27,0.2701,0.2701,0.2702,0.2707,0.2711,0.2711,0.271,0.2711,0.2711,0.2711,0,0,0,0,0,0,0,0.2564,0.257,0.2645,0.2643,0.2647,0.2653,0.2658,0.2661,0.2682,0.2678,0.268,0.2695,0.2702,0.2707,0.2707,0.2711,0.271,0.2711,0.2711,0.2711,0.2781,0.2783,0,0,0,0,0,0,0.2567,0.2567,0.2643,0.2647,0.2612,0.2655,0.2661,0.2672,0.2684,0.2687,0.2695,0.2695,0.2706,0.2707,0.2708,0.2761,0.2711,0.2711,0.2711,0.2779,0.2781,0.2783,0,0,0,0,0,0,0.2564,0.2573,0.2641,0.2613,0.2622,0.2657,0.2669,0.2674,0.2684,0.2698,0.27,0.2702,0.2706,0.2707,0.2726,0.2759,0.2711,0.2711,0.2777,0.278,0.2782,0.2834,0,0,0,0,0,0,0.2561,0.2571,0.2576,0.2613,0.2624,0.2667,0.267,0.2675,0.2696,0.2697,0.2705,0.2705,0.2706,0.2726,0.2726,0.2759,0.2712,0.2775,0.2778,0.2781,0.2831,0.2838,0.2845,0,0,0,0,0,0.2557,0.2566,0.2575,0.2585,0.2631,0.2668,0.2674,0.2695,0.2696,0.2703,0.2716,0.2705,0.2747,0.2727,0.2727,0.2761,0.2774,0.2778,0.2781,0.2827,0.2837,0.2845,0,0,0,0,0,0,0.2524,0.257,0.2581,0.2603,0.2636,0.2672,0.2682,0.2697,0.2713,0.2711,0.2718,0.272,0.2756,0.2748,0.2726,0.2793,0.2762,0.2766,0.2797,0.2806,0.2813,0.28,0.2712,0,0,0,0,0,0.252,0.2537,0.2583,0.26,0.2616,0.2648,0.2664,0.2681,0.2705,0.2711,0.2723,0.274,0.2772,0.2778,0.2798,0.282,0.2838,0.2846,0.2853,0.2859,0.2851,0.2903,0.2914,0.2796,0.2796,0.2795,0,0,0.2512,0.2541,0.255,0.2594,0.2617,0.2652,0.2656,0.2684,0.2717,0.2709,0.2746,0.2764,0.2785,0.2825,0.284,0.282,0.2912,0.2864,0.2869,0.2857,0.2908,0.292,0.293,0.2798,0.2798,0.2797,0,0,0.2513,0.2531,0.2549,0.258,0.2624,0.265,0.266,0.2701,0.272,0.276,0.2776,0.2807,0.2842,0.2868,0.2886,0.294,0.2953,0.2955,0.2974,0.3026,0.3036,0.3045,0.3121,0.3136,0.2953,0.2953,0.2953,0,0.2503,0.2534,0.256,0.2593,0.2619,0.2652,0.2681,0.2714,0.2758,0.2778,0.2778,0.2854,0.2865,0.2927,0.2951,0.2956,0.2995,0.2939,0.3035,0.3044,0.3052,0.3127,0.3143,0.2956,0.2956,0.2956,0.2955,0,0.2526,0.2552,0.2566,0.262,0.265,0.2678,0.2732,0.2761,0.2788,0.2824,0.2885,0.291,0.2954,0.2974,0.2978,0.3049,0.3066,0.3044,0.301,0.3067,0.3143,0.3159,0.2961,0.296,0.2959,0.2958,0,0,0.2499,0.2567,0.2572,0.2601,0.2663,0.2694,0.2747,0.2805,0.2857,0.2891,0.2959,0.3003,0.3016,0.3037,0.3055,0.309,0.3194,0.309,0.3092,0.3161,0.3339,0.3312,0.3326,0.3193,0.3195,0.3197,0.3384,0,0.2507,0.2559,0.2596,0.2653,0.2682,0.273,0.2788,0.2846,0.2901,0.2978,0.3007,0.3083,0.3045,0.3087,0.3114,0.3181,0.3231,0.3147,0.3276,0.3281,0.3244,0.3341,0.3215,0.3367,0.3399,0.3401,0.3403,0,0.2516,0.2552,0.2595,0.2674,0.2694,0.2741,0.283,0.2891,0.2996,0.3042,0.3098,0.3144,0.3215,0.3179,0.3291,0.3244,0.3292,0.3329,0.3337,0.3294,0.328,0.3308,0.3393,0.3296,0.3427,0.3425,0.3423,0,0.2479,0.2551,0.258,0.2607,0.2704,0.2739,0.2801,0.2903,0.296,0.3096,0.3153,0.3239,0.3304,0.3357,0.3422,0.3376,0.3557,0.3505,0.3528,0.3528,0.3434,0.3421,0.3427,0.3586,0.3586,0.3585,0.3585,0,0.2472,0.2503,0.2569,0.2594,0.2649,0.273,0.2809,0.289,0.3009,0.3092,0.3183,0.3265,0.3349,0.3452,0.3486,0.357,0.3612,0.3555,0.3575,0.3453,0.3441,0.3358,0.3312,0.3592,0.3591,0.359,0.3588,0,0.2448,0.2475,0.2525,0.2613,0.2632,0.2684,0.2792,0.2865,0.2982,0.3099,0.3146,0.3312,0.3461,0.3549,0.3687,0.366,0.3646,0.3761,0.3627,0.3626,0.3499,0.3461,0.3377,0.3279,0.3809,0.381,0.381,0,0.2454,0.2472,0.2528,0.2543,0.2586,0.2656,0.2708,0.2831,0.2909,0.3116,0.3175,0.3371,0.348,0.3685,0.3727,0.3824,0.3697,0.3744,0.3603,0.3497,0.347,0.3316,0.3227,0.353,0.3528,0.3527,0.3526,0,0.2488,0.2493,0.2525,0.2555,0.2593,0.2624,0.2713,0.2747,0.291,0.3006,0.3168,0.3279,0.3502,0.3564,0.3707,0.3728,0.355,0.3711,0.363,0.3279,0.3082,0.2996,0.3429,0.3511,0.3513,0.3514,0.3514,0.3515,0.2518,0.2533,0.2563,0.257,0.2597,0.2601,0.2603,0.2697,0.2779,0.2909,0.3086,0.3213,0.3387,0.3564,0.3575,0.3502,0.3461,0.3387,0.3369,0.3238,0.3058,0.3471,0.3543,0.3544,0.3546,0.3547,0.3548,0,0.2565,0.256,0.2584,0.2564,0.2551,0.2583,0.2609,0.2594,0.2632,0.2795,0.2916,0.3095,0.3168,0.3274,0.3296,0.3185,0.3005,0.3091,0.2836,0.2779,0.319,0.3089,0.3027,0.3028,0.3028,0.3028,0.3028,0.3028,0.2588,0.2594,0.2569,0.2514,0.2495,0.2449,0.2432,0.2419,0.2485,0.2562,0.2656,0.2805,0.2995,0.3089,0.3008,0.293,0.2696,0.2573,0.256,0.2847,0.2871,0.2894,0.2786,0.2663,0.2662,0.2014,0.201,0.2006]},{"header":{"parameterUnit":"m.s-1","parameterCategory":2,"la1":30.2991,"la2":30.254,"lo1":-89.0895,"lo2":-89.0444,"dy":0.0017,"dx":0.0017,"nx":28,"ny":28,"refTime":"2023-09-10T03:00:00:Z","depth":"0","parameterNumber":3,"parameterNumberName":"V-component_of_CURRENTS"},"data":[0,0,0,0,0,0,0,0,0,0,0,0,0,0,0,0,0,0,0,0,0,0,0,0,0,0,0,0,0,0,0,0,0,0,0,0,0,0,0,0,0,0,0,0,0,0,0,0,0,0,0,0,0,0,0,0,0,0,0.004,0.0039,0,-0.0025,-0.0026,-0.0027,-0.0071,-0.0072,-0.0072,-0.0073,-0.0152,-0.0153,-0.0155,0,0,0,0,0,0,0,0,0,0,0,0,0,0.01,0.0099,0.004,0.0039,0.0038,-0.0025,-0.0026,-0.0027,-0.0071,-0.0072,-0.0073,-0.0073,-0.0151,-0.0153,-0.0155,0,0,0,0,0,0,0,0,0,0,0,0,0,0.006,0.0099,0.004,0.0007,0.0003,-0.0025,-0.0026,-0.0027,-0.0071,-0.0072,-0.0073,-0.0073,-0.015,-0.0153,-0.0155,-0.0155,0,0,-0.0163,-0.0164,0,0,0,0,0,0,0,0,0.0062,0.0058,0.0013,0.0009,0.0005,-0.0043,-0.0034,-0.0071,-0.0071,-0.0041,-0.0073,-0.0074,-0.0117,-0.0122,-0.013,-0.0159,-0.0162,-0.0163,-0.0164,-0.0165,-0.0166,0,0,0,0,0,0,0,0.0065,0.0061,0.0016,0.0012,0.0007,-0.0014,-0.002,-0.0041,-0.0073,-0.0044,-0.0048,-0.0058,-0.0119,-0.0127,-0.0132,-0.0163,-0.0163,-0.0165,-0.0166,-0.0167,-0.023,-0.023,0,0,0,0,0,0,0.0072,0.0063,0.0018,0.0014,0.003,-0.0015,-0.0021,-0.0025,-0.0072,-0.0081,-0.0057,-0.006,-0.0123,-0.0129,-0.0135,-0.0156,-0.0165,-0.0168,-0.0169,-0.023,-0.023,-0.023,0,0,0,0,0,0,0.0073,0.0069,0.0021,0.0035,0.0027,-0.0015,-0.0019,-0.0026,-0.0035,-0.0083,-0.0091,-0.0059,-0.0124,-0.0132,-0.0156,-0.0159,-0.0169,-0.0171,-0.0229,-0.023,-0.023,-0.0187,0,0,0,0,0,0,0.0076,0.007,0.0074,0.0036,0.0027,0.0013,-0.0019,-0.0027,-0.0041,-0.0045,-0.0087,-0.0095,-0.0125,-0.0152,-0.0159,-0.0163,-0.0173,-0.0229,-0.0229,-0.023,-0.0188,-0.0186,-0.0184,0,0,0,0,0,0.0078,0.0088,0.0075,0.0069,0.0033,0.0013,0.0007,-0.0025,-0.004,-0.0037,-0.0073,-0.0094,-0.016,-0.0154,-0.0162,-0.0166,-0.0229,-0.0229,-0.023,-0.0189,-0.0186,-0.0184,0,0,0,0,0,0,0.0121,0.0083,0.0068,0.0067,0.0045,0.0005,0.0005,-0.0018,-0.0042,-0.0046,-0.0092,-0.0102,-0.0127,-0.015,-0.0143,-0.0187,-0.0199,-0.0201,-0.0166,-0.0164,-0.0161,-0.0134,-0.0175,0,0,0,0,0,0.0131,0.0126,0.009,0.0091,0.0083,0.0046,0.0035,0.0014,-0.0016,-0.0027,-0.0061,-0.0099,-0.0134,-0.015,-0.018,-0.0197,-0.0201,-0.0207,-0.0205,-0.0203,-0.0186,-0.0202,-0.0199,-0.0231,-0.0231,-0.0231,0,0,0.0145,0.0126,0.0121,0.0099,0.008,0.0076,0.0038,0.0029,0.0023,-0.0031,-0.0047,-0.0089,-0.0137,-0.0162,-0.0175,-0.0182,-0.0195,-0.0204,-0.0201,-0.0185,-0.0202,-0.0198,-0.0195,-0.0232,-0.0232,-0.0232,0,0,0.0176,0.0158,0.0166,0.0152,0.0128,0.0104,0.0104,0.0068,0.0052,0.0031,-0.0017,-0.0059,-0.0101,-0.0144,-0.0169,-0.0171,-0.0182,-0.0183,-0.0148,-0.0164,-0.0161,-0.0158,-0.0148,-0.0145,-0.0182,-0.0182,-0.0182,0,0.0196,0.0201,0.0167,0.0175,0.0168,0.0121,0.0133,0.0109,0.0068,0.0058,0.0034,-0.0045,-0.0094,-0.0131,-0.0141,-0.0165,-0.0161,-0.0154,-0.0159,-0.0157,-0.0155,-0.0145,-0.0142,-0.018,-0.018,-0.018,-0.018,0,0.0233,0.0237,0.0244,0.0234,0.0224,0.0227,0.019,0.0178,0.0147,0.0115,0.0077,0.0007,-0.0037,-0.0071,-0.0109,-0.0126,-0.0122,-0.0153,-0.016,-0.0148,-0.0139,-0.0137,-0.0177,-0.0177,-0.0178,-0.0178,0,0,0.0276,0.0271,0.0274,0.0285,0.0258,0.0257,0.0248,0.0228,0.0235,0.0172,0.0179,0.0078,0.0041,0.0009,-0.0051,-0.0078,-0.0076,-0.0102,-0.0104,-0.008,-0.0079,-0.0062,-0.0057,-0.0101,-0.01,-0.01,-0.0074,0,0.0317,0.0351,0.0331,0.0359,0.0373,0.0334,0.0335,0.0309,0.0279,0.0274,0.0189,0.0172,0.0071,0.0063,0.0011,-0.0043,-0.0068,-0.0078,-0.0104,-0.0104,-0.0081,-0.0054,-0.0054,-0.0029,-0.0071,-0.0071,-0.0071,0,0.036,0.0378,0.042,0.0432,0.0436,0.0448,0.0451,0.0448,0.0416,0.0398,0.0349,0.0296,0.0237,0.0163,0.0064,0.0069,0.0002,-0.005,-0.0051,-0.0044,-0.0082,-0.0052,-0.0023,-0.0202,-0.0067,-0.0067,-0.0068,0,0.0416,0.0438,0.0479,0.0483,0.0489,0.0508,0.0512,0.0491,0.0522,0.0497,0.0534,0.0421,0.0426,0.0298,0.0172,0.013,0.0093,0.0017,-0.0032,-0.0031,-0.004,-0.004,-0.0177,-0.0042,-0.0042,-0.0042,-0.0042,0,0.0469,0.0504,0.0516,0.0543,0.0608,0.058,0.0649,0.0636,0.0659,0.0739,0.0617,0.0679,0.0467,0.0412,0.0247,0.0139,0.0148,-0.0004,-0.002,-0.0024,-0.0023,-0.0187,-0.0279,-0.0041,-0.0041,-0.0041,-0.0041,0,0.0545,0.0538,0.0598,0.0624,0.0644,0.0697,0.077,0.0832,0.0828,0.0942,0.0958,0.0904,0.0842,0.0631,0.0466,0.0285,0.0059,0.0102,0.0127,0.0112,-0.013,-0.0216,-0.0319,-0.0394,0.0043,0.0044,0.0044,0,0.0597,0.0638,0.0689,0.0741,0.0768,0.0842,0.0918,0.0928,0.1016,0.1106,0.1196,0.1166,0.1183,0.0933,0.0607,0.0337,0.0142,0.0152,0.0044,-0.0121,-0.0232,-0.03,-0.0362,0.0051,0.0051,0.0052,0.0052,0,0.073,0.0743,0.0795,0.0901,0.0986,0.1077,0.1185,0.1271,0.1328,0.143,0.1573,0.1595,0.1368,0.1094,0.0707,0.05,0.0032,0.0154,-0.0036,-0.024,-0.0304,-0.039,0.0025,0.0056,0.0056,0.0055,0.0055,0.0055,0.0847,0.0916,0.0992,0.1083,0.1184,0.1314,0.14,0.1528,0.1687,0.1836,0.1856,0.1911,0.1488,0.0963,0.067,0.0093,0.0088,-0.0114,-0.0202,-0.0253,-0.0344,0.0102,0.012,0.012,0.012,0.012,0.012,0,0.0996,0.1067,0.1178,0.1281,0.1401,0.1419,0.159,0.1678,0.1872,0.2022,0.2126,0.1947,0.1453,0.0914,0.0144,-0.0231,-0.0384,-0.0432,-0.0567,-0.0613,-0.0235,-0.0257,-0.0296,-0.0296,-0.0296,-0.0296,-0.0296,-0.0296,0.1087,0.1214,0.1252,0.1457,0.153,0.1689,0.1774,0.1912,0.2028,0.2183,0.2201,0.2181,0.1732,0.0454,-0.0432,-0.0624,-0.088,-0.0907,-0.1037,-0.0833,-0.0812,-0.0793,-0.0838,-0.0999,-0.1,-0.1393,-0.1397,-0.14]}],[{"header":{"parameterUnit":"m.s-1","parameterCategory":2,"la1":30.2991,"la2":30.254,"lo1":-89.0895,"lo2":-89.0444,"dy":0.0017,"dx":0.0017,"nx":28,"ny":28,"refTime":"2023-09-10T03:00:00:Z","depth":"2","parameterNumber":2,"parameterNumberName":"U-component_of_CURRENTS"},"data":[0,0,0,0,0,0,0,0,0,0,0,0,0,0,0,0,0,0,0,0,0,0,0,0,0,0,0,0,0,0,0,0,0,0,0,0,0,0,0,0,0,0,0,0,0,0,0,0,0,0,0,0,0,0,0,0,0,0,0.2189,0.2189,0,0.2235,0.2236,0.2237,0.2271,0.2271,0.2271,0.2271,0.2303,0.2304,0.2304,0,0,0,0,0,0,0,0,0,0,0,0,0,0.2143,0.2144,0.2189,0.2189,0.219,0.2235,0.2236,0.2237,0.2271,0.2271,0.2271,0.2271,0.2303,0.2304,0.2304,0,0,0,0,0,0,0,0,0,0,0,0,0,0.2175,0.2144,0.2189,0.2212,0.2214,0.2235,0.2236,0.2237,0.2271,0.2271,0.2271,0.2272,0.2303,0.2303,0.2304,0.2304,0,0,0.2307,0.2308,0,0,0,0,0,0,0,0,0.2173,0.2176,0.2208,0.221,0.2213,0.2247,0.2232,0.2258,0.2271,0.225,0.2271,0.2272,0.2282,0.2285,0.2294,0.2305,0.2307,0.2307,0.2308,0.2308,0.2309,0,0,0,0,0,0,0,0.2171,0.2175,0.2208,0.2208,0.2211,0.2224,0.2229,0.2237,0.2264,0.2252,0.2254,0.2258,0.2283,0.2293,0.2295,0.2307,0.2307,0.2308,0.2309,0.2309,0.2369,0.237,0,0,0,0,0,0,0.2162,0.2172,0.2207,0.2209,0.2192,0.2225,0.223,0.2236,0.2264,0.2269,0.2258,0.2259,0.2291,0.2294,0.2296,0.2373,0.2308,0.2309,0.231,0.2368,0.2369,0.237,0,0,0,0,0,0,0.2161,0.2165,0.2205,0.2191,0.2197,0.2225,0.2232,0.2237,0.2265,0.2269,0.2273,0.2282,0.2292,0.2295,0.231,0.2371,0.231,0.2311,0.2366,0.2368,0.2369,0.2478,0,0,0,0,0,0,0.2159,0.2164,0.2174,0.2191,0.2197,0.2229,0.2232,0.2238,0.2265,0.2268,0.229,0.2293,0.2292,0.2308,0.2311,0.2372,0.2311,0.2365,0.2367,0.2369,0.2473,0.2483,0.2491,0,0,0,0,0,0.2158,0.2164,0.2174,0.2179,0.2207,0.223,0.2235,0.2256,0.2266,0.2282,0.2289,0.2293,0.2323,0.2309,0.2312,0.2375,0.2364,0.2367,0.2369,0.2469,0.2481,0.2491,0,0,0,0,0,0,0.2155,0.2169,0.218,0.2193,0.2216,0.2235,0.2253,0.2266,0.2287,0.2294,0.2297,0.2299,0.233,0.2328,0.2313,0.2393,0.2348,0.2351,0.2423,0.2434,0.2443,0.2461,0.2312,0,0,0,0,0,0.2156,0.2164,0.2186,0.2199,0.2213,0.2237,0.2252,0.2268,0.2284,0.2295,0.2307,0.2322,0.234,0.2366,0.2363,0.2412,0.2414,0.2454,0.2463,0.2471,0.2485,0.2521,0.2536,0.2377,0.2377,0.2377,0,0,0.2156,0.2168,0.2172,0.2199,0.222,0.2244,0.2248,0.2277,0.2308,0.2293,0.2336,0.2339,0.2349,0.2396,0.2415,0.2411,0.2519,0.2474,0.2482,0.2491,0.2525,0.2541,0.2555,0.2379,0.2378,0.2378,0,0,0.2157,0.2176,0.2184,0.2209,0.2243,0.2259,0.2271,0.2301,0.2331,0.2357,0.2364,0.2397,0.2419,0.2456,0.2474,0.2529,0.2545,0.2545,0.264,0.2676,0.269,0.2702,0.274,0.2754,0.2578,0.2578,0.2578,0,0.2155,0.2177,0.2192,0.2216,0.2243,0.2267,0.2297,0.2327,0.2359,0.2391,0.2376,0.2453,0.2446,0.255,0.2572,0.2555,0.2582,0.2604,0.2691,0.2703,0.2713,0.2749,0.2764,0.2583,0.2583,0.2582,0.2582,0,0.2169,0.2194,0.2206,0.2242,0.2273,0.2303,0.2346,0.2376,0.2403,0.2439,0.2526,0.2544,0.2605,0.2618,0.2612,0.272,0.2717,0.2679,0.267,0.2737,0.2769,0.2783,0.2591,0.2589,0.2588,0.2586,0,0,0.2137,0.22,0.2206,0.2235,0.2295,0.2317,0.2374,0.2437,0.2492,0.2544,0.2649,0.2687,0.2736,0.2759,0.2797,0.2841,0.2929,0.2817,0.2816,0.2868,0.3034,0.2939,0.2944,0.2926,0.2928,0.293,0.3033,0,0.2145,0.2189,0.2227,0.2278,0.2308,0.2358,0.2415,0.2478,0.2536,0.2637,0.2721,0.2804,0.2791,0.2849,0.2907,0.2902,0.2969,0.2906,0.295,0.2951,0.2869,0.2957,0.273,0.2795,0.3046,0.3048,0.305,0,0.2144,0.2178,0.2232,0.2308,0.233,0.2371,0.2472,0.253,0.2668,0.2726,0.2859,0.2921,0.3042,0.3003,0.3094,0.3066,0.3073,0.3066,0.3069,0.2951,0.288,0.2764,0.281,0.3072,0.307,0.3069,0.3067,0,0.2112,0.2178,0.2225,0.2252,0.2343,0.2388,0.2445,0.2559,0.2632,0.2808,0.2879,0.3038,0.311,0.3163,0.3165,0.3141,0.3245,0.3193,0.3131,0.3125,0.2922,0.2892,0.327,0.3269,0.3269,0.3269,0.3269,0,0.2106,0.2138,0.2215,0.2244,0.2305,0.2386,0.2477,0.2554,0.2715,0.2814,0.2949,0.3053,0.3145,0.322,0.323,0.323,0.3299,0.3171,0.3152,0.2952,0.2925,0.3142,0.3126,0.3273,0.3272,0.3271,0.327,0,0.2077,0.2119,0.2168,0.2264,0.2293,0.2344,0.2474,0.2548,0.2688,0.2835,0.2897,0.3068,0.3135,0.3223,0.3285,0.3267,0.3288,0.3276,0.304,0.2991,0.3135,0.3124,0.3219,0.3216,0.3214,0.3213,0.3211,0,0.208,0.2099,0.2173,0.2197,0.2247,0.2325,0.2386,0.2526,0.2608,0.2818,0.2891,0.3023,0.3092,0.3181,0.3171,0.3204,0.3265,0.2999,0.2888,0.3162,0.3135,0.3126,0.3117,0.2676,0.2671,0.2666,0.2662,0,0.2086,0.2102,0.2148,0.2196,0.2247,0.2284,0.2383,0.243,0.2598,0.2696,0.2817,0.289,0.2988,0.2907,0.2958,0.2939,0.2971,0.2902,0.327,0.271,0.2654,0.2626,0.2635,0.2621,0.2625,0.2628,0.263,0.2632,0.2093,0.2104,0.2156,0.2183,0.2238,0.2251,0.223,0.2341,0.2419,0.2517,0.264,0.2656,0.2703,0.2638,0.2589,0.2563,0.2745,0.263,0.2643,0.2661,0.2566,0.2508,0.2431,0.2434,0.2437,0.2439,0.2441,0,0.2095,0.2112,0.2138,0.2154,0.2169,0.2225,0.2228,0.2183,0.2199,0.2322,0.2365,0.2188,0.2162,0.2226,0.2127,0.2135,0.2104,0.205,0.1994,0.2038,0.2076,0.1949,0.1651,0.1649,0.1646,0.1644,0,0,0.2092,0.2088,0.2062,0.2062,0.2097,0.2044,0.1995,0.1954,0.1967,0.1931,0.1922,0.2048,0.2163,0.1867,0.1847,0.1739,0.1868,0.1672,0.2313,0.2292,0.2326,0.2426,0.2282,0,0,0,0,0]},{"header":{"parameterUnit":"m.s-1","parameterCategory":2,"la1":30.2991,"la2":30.254,"lo1":-89.0895,"lo2":-89.0444,"dy":0.0017,"dx":0.0017,"nx":28,"ny":28,"refTime":"2023-09-10T03:00:00:Z","depth":"2","parameterNumber":3,"parameterNumberName":"V-component_of_CURRENTS"},"data":[0,0,0,0,0,0,0,0,0,0,0,0,0,0,0,0,0,0,0,0,0,0,0,0,0,0,0,0,0,0,0,0,0,0,0,0,0,0,0,0,0,0,0,0,0,0,0,0,0,0,0,0,0,0,0,0,0,0,-0.0001,-0.0002,0,-0.0068,-0.0069,-0.007,-0.0116,-0.0117,-0.0117,-0.0117,-0.0214,-0.0216,-0.0218,0,0,0,0,0,0,0,0,0,0,0,0,0,0.0046,0.0046,-0.0001,-0.0002,-0.0003,-0.0068,-0.0069,-0.007,-0.0116,-0.0117,-0.0117,-0.0118,-0.0213,-0.0215,-0.0218,0,0,0,0,0,0,0,0,0,0,0,0,0,0.0007,0.0046,-0.0001,-0.0034,-0.0037,-0.0068,-0.0069,-0.007,-0.0116,-0.0117,-0.0117,-0.0118,-0.0212,-0.0215,-0.0218,-0.0229,0,0,-0.0229,-0.023,0,0,0,0,0,0,0,0,0.0009,0.0005,-0.0028,-0.0031,-0.0035,-0.0084,-0.0088,-0.0125,-0.0116,-0.0086,-0.0117,-0.0118,-0.0172,-0.0179,-0.019,-0.0233,-0.0238,-0.0229,-0.0231,-0.0233,-0.0233,0,0,0,0,0,0,0,0.0012,0.0008,-0.0028,-0.0029,-0.0033,-0.0059,-0.0065,-0.0095,-0.0126,-0.0089,-0.0093,-0.01,-0.0175,-0.0187,-0.0193,-0.0239,-0.0229,-0.0232,-0.0234,-0.0235,-0.03,-0.0299,0,0,0,0,0,0,0.0023,0.0011,-0.0026,-0.003,-0.0014,-0.0059,-0.0066,-0.0068,-0.0126,-0.0135,-0.0099,-0.0101,-0.0181,-0.0189,-0.0197,-0.0223,-0.0233,-0.0236,-0.0238,-0.03,-0.0299,-0.0299,0,0,0,0,0,0,0.0025,0.0021,-0.0023,-0.0011,-0.0019,-0.0059,-0.0062,-0.0069,-0.0083,-0.0133,-0.0143,-0.0106,-0.0182,-0.0192,-0.022,-0.0227,-0.0237,-0.024,-0.03,-0.03,-0.0299,-0.027,0,0,0,0,0,0,0.0027,0.0022,0.0023,-0.001,-0.0019,-0.0035,-0.0062,-0.007,-0.0087,-0.0091,-0.0142,-0.0151,-0.0183,-0.0215,-0.0223,-0.0232,-0.0243,-0.0301,-0.03,-0.0299,-0.0271,-0.0269,-0.0266,0,0,0,0,0,0.0029,0.0036,0.0024,0.002,-0.0015,-0.0035,-0.0041,-0.0073,-0.0086,-0.0088,-0.0122,-0.0149,-0.0217,-0.0217,-0.0228,-0.0237,-0.0301,-0.03,-0.0299,-0.0272,-0.0269,-0.0266,0,0,0,0,0,0,0.0057,0.0031,0.0017,0.0016,-0.0006,-0.0043,-0.0046,-0.0068,-0.0096,-0.0099,-0.0147,-0.0159,-0.0182,-0.021,-0.0209,-0.0252,-0.0263,-0.0264,-0.0239,-0.0236,-0.0234,-0.0208,-0.0246,0,0,0,0,0,0.0065,0.0063,0.0033,0.0032,0.0025,-0.001,-0.0022,-0.0041,-0.0071,-0.0084,-0.012,-0.0156,-0.0186,-0.0211,-0.0235,-0.0264,-0.0273,-0.0276,-0.0273,-0.0271,-0.0255,-0.0265,-0.0262,-0.0297,-0.0297,-0.0297,0,0,0.0074,0.0061,0.0057,0.0038,0.0019,0.0017,-0.0018,-0.0029,-0.0033,-0.009,-0.0105,-0.0143,-0.0187,-0.0215,-0.0229,-0.0244,-0.0267,-0.027,-0.0268,-0.0253,-0.0264,-0.0261,-0.0258,-0.0296,-0.0296,-0.0296,0,0,0.0098,0.0082,0.0092,0.0079,0.0058,0.0038,0.0038,0.0005,-0.0011,-0.0032,-0.0071,-0.0106,-0.0157,-0.0191,-0.0215,-0.0211,-0.0244,-0.0229,-0.0211,-0.0222,-0.0219,-0.0216,-0.0231,-0.023,-0.024,-0.024,-0.024,0,0.011,0.0118,0.0091,0.0099,0.0094,0.0053,0.0064,0.0043,0.0004,-0.0005,-0.0027,-0.0098,-0.0139,-0.0177,-0.0183,-0.0205,-0.0219,-0.0223,-0.0218,-0.0215,-0.0213,-0.0229,-0.0229,-0.0239,-0.0239,-0.0239,-0.0239,0,0.0141,0.0148,0.0154,0.0151,0.0142,0.0145,0.0117,0.011,0.0083,0.0053,0.0018,-0.0043,-0.0085,-0.0115,-0.0154,-0.0171,-0.0189,-0.0204,-0.0224,-0.0208,-0.0226,-0.0226,-0.0237,-0.0237,-0.0238,-0.0238,0,0,0.017,0.0176,0.0179,0.0193,0.0172,0.0174,0.0174,0.0161,0.017,0.011,0.0111,0.0028,-0.0014,-0.0043,-0.0105,-0.0134,-0.0145,-0.0169,-0.017,-0.0181,-0.0175,-0.0202,-0.0205,-0.0166,-0.0165,-0.0165,-0.0197,0,0.0204,0.024,0.0227,0.0259,0.0276,0.0249,0.0256,0.0237,0.0212,0.0204,0.0125,0.0104,0.0013,-0.0005,-0.0054,-0.0108,-0.0142,-0.0135,-0.0191,-0.0192,-0.0216,-0.0204,-0.0178,-0.0206,-0.0197,-0.0197,-0.0197,0,0.024,0.0262,0.0303,0.0328,0.0334,0.0347,0.0363,0.0363,0.0334,0.0315,0.026,0.0204,0.0139,0.0079,-0.0029,-0.0024,-0.0094,-0.0146,-0.0148,-0.0179,-0.0218,-0.0219,-0.0206,-0.0197,-0.0197,-0.0197,-0.0197,0,0.0284,0.0315,0.0356,0.0361,0.038,0.0402,0.0412,0.0398,0.0419,0.0393,0.0409,0.0302,0.0282,0.0171,0.0036,0.0012,-0.0065,-0.0105,-0.02,-0.0203,-0.0191,-0.0194,-0.0163,-0.0163,-0.0163,-0.0162,-0.0162,0,0.0325,0.0358,0.0387,0.0411,0.0469,0.046,0.0515,0.0513,0.0527,0.0566,0.0469,0.0479,0.0308,0.0229,0.0087,-0.0055,-0.0028,-0.0185,-0.0208,-0.0183,-0.0184,-0.0183,-0.0185,-0.0164,-0.0163,-0.0163,-0.0163,0,0.0364,0.0379,0.0432,0.0473,0.0494,0.0536,0.0597,0.0639,0.0643,0.0701,0.0706,0.063,0.0521,0.034,0.018,0.0034,-0.0105,-0.0162,-0.0127,-0.0146,-0.0252,-0.0252,-0.0266,-0.0267,-0.0268,-0.0269,-0.027,0,0.0384,0.0414,0.0483,0.0525,0.055,0.0613,0.0666,0.0694,0.0748,0.0792,0.0833,0.0757,0.0691,0.043,0.018,-0.0062,-0.01,-0.0192,-0.0238,-0.0239,-0.026,-0.0258,-0.0257,-0.0215,-0.0215,-0.0215,-0.0215,0,0.0411,0.0437,0.0485,0.0584,0.0651,0.0727,0.0807,0.0871,0.092,0.0971,0.1012,0.0972,0.0729,0.0481,0.0158,-0.0008,-0.0157,-0.0203,-0.0191,-0.0197,-0.0194,-0.0214,-0.0213,-0.0216,-0.0216,-0.0216,-0.0216,-0.0216,0.0426,0.0463,0.0534,0.0623,0.0719,0.0824,0.0877,0.0991,0.1086,0.1161,0.1122,0.1068,0.0807,0.0379,0.0109,-0.0168,-0.0169,-0.0273,-0.027,-0.0268,-0.0261,-0.026,-0.0294,-0.0294,-0.0294,-0.0294,-0.0295,0,0.0425,0.0476,0.0562,0.0663,0.0765,0.0823,0.0954,0.1022,0.1141,0.1229,0.1236,0.0979,0.0713,0.0424,0.0016,-0.024,-0.0257,-0.0318,-0.0279,-0.0276,-0.0274,-0.0266,-0.03,-0.0301,-0.0302,-0.0302,0,0,0.0419,0.0482,0.0522,0.0666,0.0753,0.0885,0.0952,0.1087,0.1178,0.125,0.1231,0.1144,0.0804,0.0506,0.0165,-0.006,-0.0111,-0.0109,-0.0078,0.0012,0.0017,-0.0222,-0.0203,0,0,0,0,0]}],[{"header":{"parameterUnit":"m.s-1","parameterCategory":2,"la1":30.2991,"la2":30.254,"lo1":-89.0895,"lo2":-89.0444,"dy":0.0017,"dx":0.0017,"nx":28,"ny":28,"refTime":"2023-09-10T03:00:00:Z","depth":"4","parameterNumber":2,"parameterNumberName":"U-component_of_CURRENTS"},"data":[0,0,0,0,0,0,0,0,0,0,0,0,0,0,0,0,0,0,0,0,0,0,0,0,0,0,0,0,0,0,0,0,0,0,0,0,0,0,0,0,0,0,0,0,0,0,0,0,0,0,0,0,0,0,0,0,0,0,0.1233,0.1233,0,0.1288,0.1288,0.1289,0.1331,0.1331,0.1332,0.1332,0.1383,0.1383,0.1384,0,0,0,0,0,0,0,0,0,0,0,0,0,0.1154,0.1155,0.1233,0.1233,0.1234,0.1288,0.1288,0.1289,0.1331,0.1331,0.1332,0.1333,0.1382,0.1383,0.1384,0,0,0,0,0,0,0,0,0,0,0,0,0,0.1195,0.1155,0.1232,0.1263,0.1266,0.1288,0.1288,0.1289,0.133,0.1331,0.1332,0.1333,0.1382,0.1383,0.1384,0.1376,0,0,0.1388,0.1389,0,0,0,0,0,0,0,0,0.1192,0.1197,0.1257,0.1261,0.1265,0.1305,0.1279,0.1319,0.133,0.1304,0.1332,0.1333,0.1356,0.136,0.1366,0.1379,0.1381,0.1388,0.1389,0.139,0.139,0,0,0,0,0,0,0,0.119,0.1195,0.1253,0.1258,0.1263,0.127,0.1277,0.1287,0.1324,0.1307,0.131,0.1319,0.1358,0.1365,0.1368,0.1382,0.1388,0.139,0.139,0.1391,0.1459,0.146,0,0,0,0,0,0,0.1186,0.1193,0.1251,0.1255,0.1232,0.1271,0.1279,0.129,0.1324,0.1331,0.1318,0.132,0.1362,0.1366,0.137,0.1425,0.139,0.1391,0.1392,0.1458,0.1459,0.146,0,0,0,0,0,0,0.1184,0.1191,0.1249,0.1226,0.1234,0.1272,0.1284,0.129,0.1325,0.1333,0.1339,0.135,0.1363,0.1368,0.1402,0.1425,0.1391,0.1393,0.1456,0.1458,0.1459,0.1495,0,0,0,0,0,0,0.1181,0.1189,0.1209,0.1226,0.1235,0.1278,0.1284,0.1291,0.1328,0.1333,0.1362,0.1366,0.1364,0.1401,0.1404,0.1426,0.1394,0.1455,0.1457,0.1459,0.1492,0.1498,0.1502,0,0,0,0,0,0.1178,0.1197,0.121,0.1218,0.1257,0.1279,0.1285,0.1313,0.133,0.1347,0.1369,0.1366,0.1415,0.1402,0.1406,0.1429,0.1454,0.1456,0.1459,0.149,0.1497,0.1502,0,0,0,0,0,0,0.1177,0.1203,0.1218,0.1246,0.127,0.1288,0.1312,0.1329,0.136,0.1375,0.1379,0.1385,0.1426,0.1422,0.1408,0.1455,0.1434,0.1437,0.1457,0.1463,0.1468,0.1458,0.1395,0,0,0,0,0,0.1184,0.1207,0.1229,0.1256,0.127,0.1297,0.1316,0.1336,0.1359,0.1376,0.1394,0.1415,0.1433,0.1445,0.1461,0.1483,0.1502,0.1501,0.1505,0.1509,0.1505,0.159,0.1602,0.1468,0.1468,0.1468,0,0,0.1188,0.1211,0.1222,0.1258,0.1281,0.1302,0.1311,0.1349,0.1371,0.1375,0.142,0.1438,0.1445,0.1475,0.1492,0.1476,0.1553,0.1512,0.1516,0.1508,0.1593,0.1607,0.1618,0.1469,0.1469,0.1469,0,0,0.12,0.1233,0.125,0.1274,0.1316,0.133,0.1346,0.138,0.1404,0.1441,0.1453,0.1483,0.1511,0.1518,0.1523,0.1562,0.1582,0.1575,0.1585,0.1668,0.168,0.1691,0.171,0.1722,0.157,0.157,0.157,0,0.1209,0.1234,0.126,0.1286,0.1308,0.1343,0.1365,0.139,0.1433,0.1451,0.1463,0.1519,0.1527,0.1555,0.1567,0.1573,0.1611,0.1562,0.1675,0.1687,0.1697,0.1715,0.1728,0.1572,0.1572,0.1571,0.1571,0,0.1224,0.1256,0.1272,0.1312,0.1339,0.1369,0.14,0.1438,0.1472,0.149,0.1543,0.1561,0.1593,0.16,0.1593,0.1662,0.166,0.168,0.1662,0.1713,0.1727,0.1741,0.1575,0.1574,0.1573,0.1573,0,0,0.1209,0.1269,0.1278,0.1303,0.1358,0.1378,0.1423,0.1461,0.1505,0.1539,0.1586,0.1608,0.1632,0.1639,0.1647,0.1698,0.1792,0.1721,0.1724,0.1739,0.1951,0.1826,0.1828,0.1856,0.1859,0.1861,0.1923,0,0.1215,0.1262,0.129,0.1336,0.136,0.1406,0.1445,0.149,0.1538,0.1595,0.1612,0.167,0.1643,0.1686,0.1728,0.1797,0.1833,0.1771,0.1898,0.19,0.1785,0.1842,0.1871,0.1932,0.1935,0.1937,0.1939,0,0.121,0.1248,0.1292,0.1355,0.1371,0.1409,0.1489,0.153,0.1604,0.1653,0.17,0.173,0.1789,0.1783,0.1892,0.1867,0.1904,0.1938,0.1943,0.1822,0.1801,0.1877,0.1963,0.1961,0.1959,0.1958,0.1956,0,0.1176,0.1243,0.1282,0.1304,0.1381,0.1421,0.147,0.155,0.1593,0.1709,0.1765,0.1829,0.1896,0.1961,0.2005,0.1986,0.2128,0.2115,0.2016,0.2006,0.2084,0.2072,0.2194,0.2194,0.2194,0.2194,0.2193,0,0.1154,0.1185,0.1279,0.1299,0.1361,0.1422,0.1494,0.1568,0.166,0.1716,0.18,0.1858,0.1961,0.203,0.2052,0.2067,0.2173,0.2018,0.2027,0.2091,0.208,0.2091,0.2078,0.2196,0.2195,0.2195,0.2195,0,0.1096,0.1158,0.1204,0.1302,0.1345,0.139,0.1498,0.1547,0.1664,0.175,0.1796,0.1918,0.2022,0.2074,0.2194,0.2126,0.2161,0.2137,0.2175,0.2186,0.1959,0.1948,0.2024,0.202,0.2017,0.2014,0.2012,0,0.107,0.1091,0.1199,0.1241,0.1292,0.1373,0.1431,0.1545,0.1594,0.1764,0.1793,0.1932,0.1997,0.2042,0.2123,0.2149,0.2123,0.2109,0.2032,0.1947,0.1949,0.1942,0.1935,0.2007,0.2007,0.2006,0.2005,0,0.1011,0.1056,0.1097,0.1188,0.1259,0.1318,0.1408,0.1428,0.1561,0.1679,0.1761,0.1811,0.1913,0.1973,0.2014,0.2025,0.2106,0.2077,0.2082,0.2009,0.1929,0.1932,0.1928,0.1994,0.1996,0.1997,0.1998,0,0.0974,0.098,0.1047,0.1113,0.1195,0.1235,0.1293,0.1359,0.1418,0.1594,0.1624,0.1774,0.1902,0.1911,0.1951,0.1955,0.1913,0.1839,0.1855,0.1868,0.1788,0.1661,0.1658,0,0,0,0,0,0.092,0.0915,0.0974,0.1026,0.1099,0.1152,0.1264,0.132,0.1445,0.1465,0.1534,0.1621,0.1691,0.1766,0.1737,0.1869,0.1912,0.1825,0.1832,0.1936,0.1948,0.1868,0,0,0,0,0,0,0.0888,0.0917,0.0935,0.0938,0.096,0.1029,0.1096,0.1193,0.1204,0.1346,0.1396,0.1512,0.1604,0.1686,0.17,0.1721,0.1691,0.1914,0.191,0.1929,0.194,0.195,0.1872,0,0,0,0,0]},{"header":{"parameterUnit":"m.s-1","parameterCategory":2,"la1":30.2991,"la2":30.254,"lo1":-89.0895,"lo2":-89.0444,"dy":0.0017,"dx":0.0017,"nx":28,"ny":28,"refTime":"2023-09-10T03:00:00:Z","depth":"4","parameterNumber":3,"parameterNumberName":"V-component_of_CURRENTS"},"data":[0,0,0,0,0,0,0,0,0,0,0,0,0,0,0,0,0,0,0,0,0,0,0,0,0,0,0,0,0,0,0,0,0,0,0,0,0,0,0,0,0,0,0,0,0,0,0,0,0,0,0,0,0,0,0,0,0,0,0.0085,0.0085,0,0.0044,0.0044,0.0043,0.0018,0.0018,0.0018,0.0018,-0.0046,-0.0048,-0.0049,0,0,0,0,0,0,0,0,0,0,0,0,0,0.0114,0.0114,0.0085,0.0085,0.0084,0.0044,0.0044,0.0043,0.0018,0.0018,0.0018,0.0018,-0.0046,-0.0047,-0.0049,0,0,0,0,0,0,0,0,0,0,0,0,0,0.009,0.0114,0.0085,0.0067,0.0065,0.0044,0.0044,0.0043,0.0018,0.0018,0.0018,0.0018,-0.0045,-0.0047,-0.0049,-0.006,0,0,-0.0057,-0.0058,0,0,0,0,0,0,0,0,0.0092,0.0089,0.007,0.0068,0.0066,0.0036,0.003,0.0007,0.0018,0.0036,0.0018,0.0017,-0.0021,-0.0025,-0.0032,-0.0063,-0.0066,-0.0057,-0.0058,-0.0059,-0.006,0,0,0,0,0,0,0,0.0093,0.0091,0.0069,0.007,0.0067,0.0051,0.0048,0.0026,0.0009,0.0035,0.0033,0.0028,-0.0022,-0.0029,-0.0034,-0.0067,-0.0057,-0.0059,-0.006,-0.0061,-0.0095,-0.0095,0,0,0,0,0,0,0.01,0.0092,0.0071,0.0068,0.0078,0.0051,0.0047,0.0046,0.001,0.0004,0.0028,0.0027,-0.0025,-0.0031,-0.0036,-0.0028,-0.0059,-0.0062,-0.0063,-0.0096,-0.0095,-0.0095,0,0,0,0,0,0,0.0101,0.0099,0.0072,0.0079,0.0074,0.0051,0.0049,0.0045,0.0039,0.0005,-0.0001,0.0027,-0.0026,-0.0033,-0.0051,-0.0031,-0.0063,-0.0065,-0.0096,-0.0096,-0.0095,-0.0026,0,0,0,0,0,0,0.0102,0.0099,0.0101,0.008,0.0074,0.0065,0.0049,0.0044,0.0036,0.0034,0.0002,-0.0005,-0.0026,-0.0047,-0.0053,-0.0035,-0.0067,-0.0097,-0.0096,-0.0095,-0.0029,-0.0023,-0.0018,0,0,0,0,0,0.0103,0.0108,0.0102,0.0099,0.0078,0.0066,0.0062,0.0044,0.0037,0.0037,0.0015,-0.0003,-0.0045,-0.0049,-0.0056,-0.0038,-0.0097,-0.0096,-0.0095,-0.0032,-0.0024,-0.0018,0,0,0,0,0,0,0.0118,0.0105,0.0098,0.0098,0.0085,0.0061,0.006,0.0048,0.0031,0.003,-0.0002,-0.001,-0.0017,-0.004,-0.0044,-0.0046,-0.0072,-0.0073,-0.0022,-0.0015,-0.001,0.0005,-0.0069,0,0,0,0,0,0.0124,0.0126,0.0108,0.0108,0.0104,0.0084,0.0076,0.0065,0.0047,0.004,0.0016,-0.0006,-0.0018,-0.0027,-0.0047,-0.0051,-0.0087,-0.0043,-0.0038,-0.0033,-0.0026,-0.0068,-0.0065,-0.0091,-0.0091,-0.0091,0,0,0.0129,0.0122,0.0122,0.0111,0.0101,0.0103,0.0079,0.0073,0.0079,0.0035,0.0033,0.0009,-0.0017,-0.0018,-0.0023,-0.0034,-0.0045,-0.0031,-0.0027,-0.0023,-0.0066,-0.0064,-0.0062,-0.009,-0.009,-0.009,0,0,0.0143,0.0136,0.0144,0.0139,0.0128,0.0118,0.0119,0.0099,0.0096,0.0088,0.0064,0.0053,0.0025,0.0017,0.0009,0.0031,-0.0016,0.0025,0.0067,0.0027,0.0029,0.003,-0.0013,-0.0016,0.003,0.003,0.0031,0,0.0149,0.0159,0.0144,0.0152,0.0154,0.0129,0.0142,0.0135,0.0111,0.0113,0.0096,0.0068,0.0046,0.0053,0.0064,0.0045,0.0008,0.0047,0.0035,0.0035,0.0035,-0.001,-0.0014,0.0034,0.0033,0.0033,0.0033,0,0.0171,0.018,0.0186,0.0192,0.0191,0.0197,0.0188,0.0187,0.0178,0.0167,0.0166,0.0135,0.0118,0.0115,0.0098,0.0097,0.0066,0.0044,0.002,0.0042,-0.0007,-0.0013,0.0039,0.0038,0.0037,0.0036,0,0,0.0182,0.0199,0.0202,0.0218,0.0215,0.022,0.0233,0.0239,0.0251,0.0229,0.0239,0.0226,0.0202,0.0192,0.0168,0.0143,0.0113,0.01,0.0096,0.0062,0.0016,0.0006,-0.0002,0.0084,0.0083,0.0083,-0.0018,0,0.0205,0.0237,0.0238,0.027,0.0288,0.0279,0.0295,0.0297,0.0289,0.0287,0.0266,0.0259,0.0234,0.0227,0.02,0.0131,0.0101,0.0142,-0.0003,-0.0007,-0.0016,-0.0008,0.0081,-0.0022,-0.0024,-0.0025,-0.0026,0,0.0228,0.0249,0.0287,0.0321,0.0328,0.0345,0.0368,0.0379,0.0372,0.0365,0.0352,0.0319,0.0293,0.026,0.0161,0.0184,0.0111,0.0056,0.005,0.0014,-0.0028,-0.005,-0.0037,-0.0036,-0.0035,-0.0035,-0.0034,0,0.0248,0.0285,0.0321,0.0331,0.036,0.0383,0.0399,0.0404,0.042,0.041,0.0405,0.0363,0.0334,0.0246,0.0137,0.0141,0.0011,-0.0004,-0.0081,-0.0084,-0.0076,-0.0076,-0.0078,-0.0078,-0.0078,-0.0077,-0.0077,0,0.0271,0.03,0.0338,0.0359,0.0406,0.0418,0.0461,0.0466,0.0475,0.049,0.0447,0.0435,0.0326,0.0239,0.0141,0.0011,0.0007,-0.0072,-0.0108,-0.0045,-0.0041,-0.0081,-0.008,-0.0081,-0.008,-0.008,-0.0079,0,0.0277,0.0304,0.0347,0.0394,0.0416,0.0448,0.0501,0.0524,0.0529,0.0543,0.0539,0.0476,0.0364,0.0243,0.0089,0.0014,-0.0108,-0.0156,-0.0082,-0.0113,-0.0178,-0.0172,-0.0248,-0.0249,-0.025,-0.0251,-0.0251,0,0.0276,0.03,0.0367,0.0397,0.0422,0.0476,0.0512,0.0547,0.0568,0.0565,0.0565,0.0474,0.0414,0.0197,0.0065,-0.0128,-0.0152,-0.0217,-0.0185,-0.0167,-0.0195,-0.0187,-0.018,-0.0253,-0.0253,-0.0253,-0.0254,0,0.0262,0.0289,0.0324,0.0393,0.0444,0.0505,0.0559,0.0582,0.0613,0.0618,0.0586,0.0487,0.0356,0.0198,0.0042,-0.0093,-0.0172,-0.0227,-0.0226,-0.0197,-0.0175,-0.0199,-0.0191,-0.0257,-0.0256,-0.0256,-0.0256,0,0.0242,0.026,0.0311,0.0378,0.0439,0.0508,0.0549,0.0582,0.0613,0.0618,0.0602,0.0481,0.0415,0.0214,0.0072,-0.0064,-0.0092,-0.0126,-0.013,-0.0128,-0.0059,-0.0011,-0.0072,0,0,0,0,0,0.0218,0.0247,0.0293,0.037,0.0433,0.0488,0.0561,0.0599,0.0636,0.062,0.0619,0.0505,0.0311,0.0227,0.0089,0.0036,-0.0133,-0.0131,-0.0177,-0.0275,-0.0271,-0.0211,0,0,0,0,0,0,0.02,0.0238,0.0278,0.035,0.0408,0.0489,0.0547,0.0584,0.0581,0.0597,0.0497,0.0469,0.0274,0.0387,0.0085,0.0044,-0.0003,-0.0217,-0.022,-0.0277,-0.0274,-0.0271,-0.0208,0,0,0,0,0]}]]